EW0986 Weather Reports


Display with metric or nautical units.
time (UTC)temp
F
wind
direction
speed
MPH
gust
MPH
rain 1hr
in
rain 24hr
in
rain mn
in
humidity
%
barometer
mb
20190119074604 57 120 4.0 11.0 0.00 0.00 0.00 62 1023.4
20190119073114 56 72 2.0 10.0 0.00 0.00 0.00 64 1023.2
20190119071606 56 104 1.0 8.0 0.00 0.00 0.00 67 1023.1
20190119070117 55 134 1.0 6.0 0.00 0.00 0.00 71 1022.9
20190119064557 53 91 0.0 3.0 0.00 0.00 0.00 80 1022.7
20190119063118 50 114 0.0 3.0 0.00 0.00 0.00 86 1022.4
20190119061522 48 135 0.0 2.0 0.00 0.00 0.00 88 1022.2
20190119060022 46 141 0.0 4.0 0.00 0.00 0.00 89 1022.2
20190119054536 43 111 0.0 3.0 0.00 0.00 0.00 90 1022.4
20190119053009 41 135 0.0 3.0 0.00 0.00 0.00 90 1022.2
20190119051719 39 111 0.0 0.0 0.00 0.00 0.00 89 1022.1
20190119050218 40 110 0.0 0.0 0.00 0.00 0.00 89 1022.2
20190119044631 40 110 0.0 0.0 0.00 0.00 0.00 89 1022.2
20190119043158 41 110 0.0 1.0 0.00 0.00 0.00 89 1022.2
20190119041648 41 110 0.0 0.0 0.00 0.00 0.00 89 1022.3
20190119040146 41 109 0.0 1.0 0.00 0.00 0.00 89 1022.3
20190119034631 41 107 0.0 2.0 0.00 0.00 0.00 89 1022.1
20190119033126 41 107 0.0 2.0 0.00 0.00 0.00 89 1022.0
20190119031645 41 157 0.0 3.0 0.00 0.00 0.00 89 1021.8
20190119030238 41 112 0.0 2.0 0.00 0.00 0.00 89 1021.7
20190119024711 42 113 0.0 3.0 0.00 0.00 0.00 89 1021.8
20190119023254 42 113 0.0 3.0 0.00 0.00 0.00 89 1021.7
20190119021648 42 113 0.0 1.0 0.00 0.00 0.00 89 1021.7
20190119020128 43 112 0.0 1.0 0.00 0.00 0.00 89 1021.6
20190119014608 43 113 0.0 1.0 0.00 0.00 0.00 89 1021.8
20190119013111 43 111 0.0 3.0 0.00 0.00 0.00 89 1021.8
20190119011640 43 98 0.0 2.0 0.00 0.00 0.00 89 1021.8
20190119010131 42 113 0.0 3.0 0.00 0.00 0.00 90 1021.9
20190119004640 42 157 0.0 2.0 0.00 0.00 0.00 89 1022.0
20190118230104 42 37 0.0 1.0 0.00 0.00 0.00 87 1022.3
20190118224542 43 36 0.0 1.0 0.00 0.00 0.00 87 1022.3
20190118223056 43 36 0.0 1.0 0.00 0.00 0.00 86 1022.4
20190118221556 43 36 0.0 0.0 0.00 0.00 0.00 84 1022.4
20190118220119 44 36 0.0 0.0 0.00 0.00 0.00 83 1022.4
20190118214550 44 36 0.0 0.0 0.00 0.00 0.00 82 1022.4
20190118213024 45 36 0.0 0.0 0.00 0.00 0.00 81 1022.4
20190118211551 46 36 0.0 2.0 0.00 0.00 0.00 81 1022.4
20190118203020 47 30 1.0 3.0 0.00 0.00 0.00 80 1022.4
20190118201523 47 35 1.0 4.0 0.00 0.00 0.00 81 1022.4
20190118200038 47 49 2.0 4.0 0.00 0.00 0.00 81 1022.3
20190118194530 47 61 0.0 1.0 0.00 0.00 0.00 81 1022.3
20190118193046 47 68 0.0 4.0 0.00 0.00 0.00 81 1022.4
20190118191530 47 45 0.0 2.0 0.00 0.00 0.00 81 1022.4
20190118190022 48 45 0.0 1.0 0.00 0.00 0.00 81 1022.5
20190118183037 48 49 1.0 4.0 0.00 0.00 0.00 80 1022.5
20190118181532 48 43 1.0 6.0 0.00 0.00 0.00 80 1022.5
20190118180034 48 51 1.0 5.0 0.00 0.00 0.00 80 1022.4
20190118174514 48 39 1.0 5.0 0.00 0.00 0.00 80 1022.5
20190118173018 49 42 1.0 3.0 0.00 0.00 0.00 80 1022.6
20190118171514 49 45 0.0 2.0 0.00 0.00 0.00 79 1022.6
20190118170015 50 58 0.0 3.0 0.00 0.00 0.00 77 1022.5
20190118164529 51 41 0.0 2.0 0.00 0.00 0.00 75 1022.5
20190118163036 52 40 0.0 2.0 0.00 0.00 0.00 73 1022.5
20190118161508 53 40 0.0 2.0 0.00 0.00 0.00 72 1022.5
20190118160008 54 38 0.0 4.0 0.00 0.00 0.00 71 1022.3
20190118154504 55 328 0.0 1.0 0.00 0.00 0.00 69 1022.1
20190118153011 56 323 0.0 0.0 0.00 0.00 0.00 68 1022.2
20190118151511 56 327 0.0 0.0 0.00 0.00 0.00 67 1022.0
20190118150012 57 327 0.0 2.0 0.00 0.00 0.00 67 1021.8
20190118144506 58 333 0.0 2.0 0.00 0.00 0.00 65 1021.7
20190118141745 59 323 0.0 3.0 0.00 0.00 0.00 63 1021.6
20190118140240 60 20 1.0 5.0 0.00 0.00 0.00 62 1021.6
20190118134653 60 317 0.0 5.0 0.00 0.00 0.00 61 1021.5
20190118133113 60 315 0.0 3.0 0.00 0.00 0.00 60 1021.4
20190118131609 61 300 0.0 5.0 0.00 0.00 0.00 60 1021.2
20190118130119 61 360 1.0 6.0 0.00 0.00 0.00 59 1021.1
20190118124633 61 252 1.0 6.0 0.00 0.00 0.00 60 1021.1
20190118123052 62 342 1.0 8.0 0.00 0.00 0.00 59 1021.0
20190118121643 62 348 0.0 5.0 0.00 0.00 0.00 59 1021.0
20190118120106 61 355 0.0 6.0 0.00 0.00 0.00 59 1020.9
20190118114656 61 300 0.0 4.0 0.00 0.00 0.00 60 1021.0
20190118113045 61 269 1.0 6.0 0.00 0.00 0.00 58 1021.0
20190118111609 61 329 1.0 4.0 0.00 0.00 0.00 59 1021.1
20190118110116 61 290 1.0 7.0 0.00 0.00 0.00 60 1021.1
20190118104611 61 257 1.0 7.0 0.00 0.00 0.00 58 1021.2
20190118103039 61 279 0.0 4.0 0.00 0.00 0.00 57 1021.2
20190118101620 62 223 1.0 7.0 0.00 0.00 0.00 57 1021.2
20190118100114 62 246 1.0 8.0 0.00 0.00 0.00 56 1021.4
20190118094602 62 264 2.0 7.0 0.00 0.00 0.00 55 1021.6
20190118093103 62 251 2.0 7.0 0.00 0.00 0.00 58 1021.8
20190118091541 62 254 0.0 7.0 0.00 0.00 0.00 57 1021.9
20190118090058 62 297 0.0 3.0 0.00 0.00 0.00 58 1022.0
20190118084520 61 346 0.0 4.0 0.00 0.00 0.00 56 1022.1
20190118083010 60 9 0.0 4.0 0.00 0.00 0.00 57 1022.2
20190118081513 60 198 0.0 2.0 0.00 0.00 0.00 62 1022.2
20190118080227 59 205 0.0 2.0 0.00 0.00 0.00 65 1022.2